TimeMDT,TemperatureF,Dew PointF,Humidity,Sea Level PressureIn,VisibilityMPH,Wind Direction,Wind SpeedMPH,Gust SpeedMPH,PrecipitationIn,Events,Conditions,WindDirDegrees,DateUTC
12:53 AM,25.0,3.0,39,30.09,10.0,NW,4.6,-,N/A,,Clear,310,2013-04-24 06:53:00
1:53 AM,25.0,1.0,36,30.06,10.0,ENE,8.1,-,N/A,,Clear,60,2013-04-24 07:53:00
2:53 AM,21.0,1.9,44,30.07,10.0,Calm,Calm,-,N/A,,Clear,0,2013-04-24 08:53:00
4:53 AM,19.9,1.0,44,30.08,10.0,NE,8.1,-,N/A,,Clear,50,2013-04-24 10:53:00
5:53 AM,19.0,-0.0,43,30.10,10.0,East,4.6,-,N/A,,Partly Cloudy,100,2013-04-24 11:53:00
6:53 AM,21.9,1.9,42,30.12,10.0,Calm,Calm,-,N/A,,Partly Cloudy,0,2013-04-24 12:53:00
7:53 AM,32.0,5.0,32,30.12,10.0,ENE,3.5,-,N/A,,Scattered Clouds,70,2013-04-24 13:53:00
8:53 AM,39.9,5.0,23,30.12,10.0,ENE,3.5,-,N/A,,Mostly Cloudy,60,2013-04-24 14:53:00
9:53 AM,48.0,-2.9,12,30.09,10.0,Calm,Calm,-,N/A,,Mostly Cloudy,0,2013-04-24 15:53:00
10:53 AM,52.0,-9.0,8,30.09,10.0,NW,4.6,-,N/A,,Mostly Cloudy,310,2013-04-24 16:53:00
11:53 AM,55.9,-6.0,8,30.11,10.0,NNW,8.1,-,N/A,,Partly Cloudy,340,2013-04-24 17:53:00
12:53 PM,55.9,-5.1,8,30.09,10.0,Calm,Calm,-,N/A,,Mostly Cloudy,0,2013-04-24 18:53:00
1:53 PM,59.0,-4.0,8,30.06,10.0,South,5.8,-,N/A,,Partly Cloudy,170,2013-04-24 19:53:00
2:53 PM,62.1,-0.0,8,30.05,10.0,Variable,6.9,-,N/A,,Clear,0,2013-04-24 20:53:00
3:53 PM,64.0,-0.0,8,30.02,10.0,Variable,5.8,-,N/A,,Clear,0,2013-04-24 21:53:00
4:53 PM,63.0,-0.0,8,30.02,10.0,WNW,3.5,17.3,N/A,,Clear,300,2013-04-24 22:53:00
5:53 PM,63.0,1.0,8,30.03,10.0,Variable,3.5,-,N/A,,Clear,0,2013-04-24 23:53:00
6:53 PM,61.0,3.0,10,30.03,10.0,NNW,9.2,-,N/A,,Clear,340,2013-04-25 00:53:00
7:53 PM,54.0,5.0,14,30.01,10.0,North,6.9,-,N/A,,Clear,10,2013-04-25 01:53:00
8:53 PM,48.9,7.0,18,30.01,10.0,ENE,3.5,-,N/A,,Clear,60,2013-04-25 02:53:00
9:53 PM,46.9,9.0,21,30.01,10.0,NNW,3.5,-,N/A,,Clear,330,2013-04-25 03:53:00
10:53 PM,45.0,10.9,25,30.01,10.0,Calm,Calm,-,N/A,,Clear,0,2013-04-25 04:53:00
11:53 PM,36.0,10.0,34,30.03,10.0,Calm,Calm,-,N/A,,Clear,0,2013-04-25 05:53:00